Elizabeth City, NC

11:43 PM EST on February 18, 2018 (GMT -0500)
Elizabeth City Cgas-Regional

Weather History for KECG - November, 2011

Change the Weather History Date:

Friday, November 25, 2011

  Actual Average Record
Temperature  
Mean Temperature 51 °F 50 °F  
Max Temperature 66 °F 61 °F 79 °F (1973)
Min Temperature 36 °F 40 °F 22 °F (1938)
Degree Days  
Heating Degree Days 14 15  
Month to date heating degree days 239 286  
Since 1 July heating degree days 392 437  
Cooling Degree Days 0 0  
Month to date cooling degree days 13 4  
Year to date cooling degree days 1973 1585  
Growing Degree Days 2 (Base 50)    
Moisture  
Dew Point 38 °F    
Average Humidity 60    
Maximum Humidity 86    
Minimum Humidity 34    
Precipitation  
Precipitation 0.00 in 0.10 in 1.57 in (1957)
Month to date precipitation 1.34 2.61  
Year to date precipitation 33.11 43.57  
Snow  
Snow 0.00 in - T in (1956)
Month to date snowfall 0.0  
Since 1 July snowfall 0.0  
Snow Depth 0.00 in    
Sea Level Pressure  
Sea Level Pressure 30.30 in    
Wind  
Wind Speed 5 mph (SSW)    
Max Wind Speed 12 mph    
Max Gust Speed 14 mph    
Visibility 10 miles    
Events      
T = Trace of Precipitation, MM = Missing Value Source: NWS Daily Summary

Daily Weather History Graph

Daily Weather History Graph

Search for Another Location

Airport or City:

Trip Planner

Search our weather history database for the weather conditions in past years. The results will help you decide how hot, cold, wet, or windy it might be!

Date:

Astronomy

Nov. 25, 2011 Rise Set
Actual Time 6:51 AM EST 4:51 PM EST
Civil Twilight 6:23 AM EST 5:19 PM EST
Nautical Twilight 5:51 AM EST 5:51 PM EST
Astronomical Twilight 5:21 AM EST 6:21 PM EST
Moon 7:15 AM EST (11/25) 5:18 PM EST (11/25)
Length of Visible Light 10h 55m
Length of Day
10h 00m
New Moon, 0% of the Moon is Illuminated
Nov 25
New Moon
Dec 2
First Quarter
Dec 10
Full
Dec 17
Last Quarter
Dec 24
New

Hourly Weather History & Observations

Time (EST) Temp. Windchill Dew Point Humidity Pressure Visibility Wind Dir Wind Speed Gust Speed Precip Events Conditions
12:54 AM 39.0 °F 36.8 °F 35.1 °F 86% 30.32 in 10.0 mi SW 3.5 mph - N/A   Clear
1:54 AM 39.0 °F 35.7 °F 34.0 °F 82% 30.32 in 10.0 mi SW 4.6 mph - N/A   Clear
2:54 AM 41.0 °F 38.0 °F 35.1 °F 79% 30.33 in 10.0 mi SW 4.6 mph - N/A   Clear
3:54 AM 39.0 °F 35.7 °F 33.1 °F 79% 30.32 in 10.0 mi SW 4.6 mph - N/A   Clear
4:54 AM 39.2 °F 37.0 °F 33.8 °F 81% 30.33 in 10.0 mi SW 3.5 mph - N/A   Clear
5:54 AM 39.0 °F 36.8 °F 33.1 °F 79% 30.34 in 10.0 mi SW 3.5 mph - N/A   Clear
6:54 AM 39.9 °F - 33.1 °F 77% 30.35 in 10.0 mi Calm Calm - N/A   Clear
7:54 AM 41.0 °F - 35.1 °F 79% 30.36 in 10.0 mi Calm Calm - N/A   Clear
8:54 AM 51.1 °F - 41.0 °F 68% 30.37 in 10.0 mi SW 3.5 mph - N/A   Clear
9:54 AM 57.0 °F - 37.9 °F 49% 30.36 in 10.0 mi West 5.8 mph - N/A   Clear
11:54 AM 64.0 °F - 37.0 °F 37% 30.31 in 10.0 mi South 6.9 mph - N/A   Clear
12:54 PM 64.9 °F - 42.1 °F 43% 30.29 in 10.0 mi South 8.1 mph - N/A   Clear
1:54 PM 66.0 °F - 39.0 °F 37% 30.27 in 10.0 mi SSW 10.4 mph - N/A   Clear
2:54 PM 66.2 °F - 37.4 °F 35% 30.26 in 10.0 mi SW 8.1 mph - N/A   Clear
3:54 PM 64.0 °F - 39.0 °F 40% 30.26 in 10.0 mi SSW 6.9 mph - N/A   Clear
4:54 PM 57.9 °F - 37.0 °F 46% 30.26 in 10.0 mi SSW 5.8 mph - N/A   Clear
5:54 PM 54.0 °F - 37.9 °F 55% 30.26 in 10.0 mi South 3.5 mph - N/A   Clear
6:54 PM 52.0 °F - 39.9 °F 63% 30.26 in 10.0 mi South 3.5 mph - N/A   Clear
7:54 PM 50.0 °F - 39.9 °F 68% 30.27 in 10.0 mi South 5.8 mph - N/A   Clear
8:54 PM 51.1 °F - 43.0 °F 74% 30.28 in 7.0 mi South 6.9 mph - N/A   Clear
9:54 PM 41.0 °F 37.1 °F 37.9 °F 89% 30.29 in 10.0 mi SSW 5.8 mph - N/A   Clear
10:54 PM 46.0 °F 43.1 °F 41.0 °F 83% 30.30 in 10.0 mi SSW 5.8 mph - N/A   Clear
11:54 PM 48.0 °F - 42.1 °F 80% 30.30 in 10.0 mi SSW 6.9 mph - N/A   Clear